Location: Neuvy Saint Sepulchre
(46.5953°N, 1.8122°E)
Time: 21:51:03
(UTC+02:00)

ISS - Pass Details

Date: 24 March 2019
Orbit: 408 x 410 km, 51.6° (Epoch: 24 April)

Event Time Altitude Azimuth Distance (km) Brightness Sun altitude
Rises 21:01:19 0° 255° (WSW) 2,331 0.8 -19.3°
Reaches altitude 10° 21:03:25 10° 260° (W) 1,471 -0.2 -19.6°
Maximum altitude 21:06:40 57° 339° (NNW) 489 -3.3 -20.1°
Enters shadow 21:07:09 50° 18° (NNE) 530 -3.3 -20.2°
